Weather in Burnie

Australia     41°03′27″S   145°54′06″E
temp.,
°C
wind,
m/s
gust,
m/s
humid.,
%
clouds,
%
prec.,
mm/h
press.,
hPa
HPBL,
m
21 april, wed
wed2101:00+7ssw45700 0.0 1015238
04:00+7ssw34690 0.0 1015230
07:00+7ssw34673 0.0 1015221
10:00+10w25502 0.0 1015773
13:00+12wnw895687 0.0 10131548
16:00+12wnw81161100 0.1 10121520
19:00+12wnw81168100 0.1 10111255
22:00+12w8127625 0.9 10101111
22 april, thu
thu2201:00+13wnw81378100 0.3 10071142
04:00+13wsw812765 1.3 10051038
07:00+12w81366100 0.0 10061677
10:00+12w914666 0.0 10071484
13:00+14w10156411 0.1 10061605
16:00+14w915668 0.2 10051501
19:00+13wsw9146562 0.1 10071544
22:00+12w91465100 0.1 10091712
23 april, fri
fri2301:00+12w914706 0.0 10091519
04:00+12wsw914679 0.0 10101563
07:00+11wsw8147026 0.0 10121382
10:00+13wsw7126259 0.0 10141554
13:00+15w8105699 0.1 10131885
16:00+14w8116113 0.1 10151482
19:00+12w71171100 0.0 1017984
22:00+12w7117562 0.0 1018872
24 april, sat
sat2401:00+11w610836 0.0 1018611
04:00+11w6118488 0.1 1017625
07:00+12wsw611745 0.0 1018900
10:00+14w7116974 0.0 10191332
13:00+15w8106397 0.0 10181326
16:00+15wsw81262100 0.0 10181304
19:00+13wsw71170100 0.0 1020989
22:00+12wsw6107499 0.0 1020854
25 april, sun
sun2501:00+12wsw6977100 0.2 1020972
04:00+12wsw697930 0.4 1021794
07:00+13wsw6106999 0.0 10221177
10:00+14wsw6116594 0.1 10231368
13:00+16wsw69543 0.0 10231487
16:00+16sw69560 0.0 10231300
19:00+13sw610635 0.0 10261002
22:00+12sw59652 0.0 1027857